Location: Newark
(51.3318°N, 0.0053°E)
Time: 21:16:56
(UTC+00:00)

EO-88 - Visible Passes

Search period start: 26 June 2022 00:00
Search period end: 06 July 2022 00:00
Orbit: 458 x 464 km, 97.3° (Epoch: 26 June)

Date Brightness Start Highest point End Pass type
(mag) Time Alt. Az. Time Alt. Az. Time Alt. Az.
26 Jun ? 21:28:24 10° S 21:31:51 63° W 21:35:20 10° NNW visible
27 Jun ? 22:31:50 10° WSW 22:33:39 14° W 22:35:27 10° WNW visible
28 Jun ? 21:58:45 10° SSW 22:01:48 28° W 22:04:53 10° NW visible
29 Jun ? 21:26:39 10° S 21:30:06 66° WSW 21:33:35 10° NNW visible
30 Jun ? 22:29:52 10° WSW 22:31:47 14° W 22:33:43 10° NW visible
01 Jul ? 21:56:47 10° SSW 21:59:53 30° W 22:03:00 10° NNW visible
02 Jul ? 21:24:38 10° S 21:28:06 70° WSW 21:31:35 10° NNW visible
03 Jul ? 22:27:39 10° SW 22:29:41 15° W 22:31:44 10° NW visible
04 Jul ? 21:54:35 10° SSW 21:57:43 31° W 22:00:52 10° NNW visible
05 Jul ? 21:22:24 10° S 21:25:52 75° WSW 21:29:21 10° NNW visible
